Regional Weather Roundup
Issued by NWS

Home | Current Version | Previous Version | Graphics & Text | Print | Product List | Glossary On
Versions: 1 2 3 4 5 6 7 8 9 10 11 12 13 14 15 16 17 18 19 20 21 22 23 24 25 26 27 28 29 30 31 32 33 34 35 36 37 38 39 40 41 42 43 44 45 46 47 48 49 50
000
ASUS43 KLSX 251759
RWRMO

WEATHER SUMMARY FOR MISSOURI
NATIONAL WEATHER SERVICE SPRINGFIELD MO
100 PM CDT SUN JUN 25 2017

NOTE: "FAIR" INDICATES FEW OR NO CLOUDS BELOW 12,000 FEET WITH NO
       SIGNIFICANT WEATHER AND/OR OBSTRUCTIONS TO VISIBILITY.
       CURRENT SKY AND/OR WEATHER CONDITIONS ARE NOT AVAILABLE FOR
       CHILLICOTHE AND FARMINGTON.

MOZ001>031-035>038-043-044-053-054-251900-
...NORTHERN AND WESTERN MISSOURI...

CITY           SKY/WX    TMP DP  RH WIND       PRES   REMARKS
KANSAS CTY INT MOSUNNY   76  50  40 NW6       30.29F
6HR MIN TEMP:  59; 6HR MAX TEMP:  76;

KANSAS C DTWN  SUNNY     79  48  33 N9G17     30.27F
6HR MIN TEMP:  64; 6HR MAX TEMP:  79;

LEE`S SUMMIT   SUNNY     78  48  34 N12       30.28F
6HR MIN TEMP:  63; 6HR MAX TEMP:  78;

ST JOSEPH      SUNNY     75  46  35 NW10      30.29F
6HR MIN TEMP:  56; 6HR MAX TEMP:  75;

CHILLICOTHE      N/A     73  45  36 NW9G21    30.28F
6HR MIN TEMP:  56; 6HR MAX TEMP:  74;

KIRKSVILLE     SUNNY     72  48  42 NW14G21   30.26F
6HR MIN TEMP:  57; 6HR MAX TEMP:  72;


$$
MOZ066>068-077>081-088>096-101>105-251900-
...SOUTHWEST MISSOURI...

CITY           SKY/WX    TMP DP  RH WIND       PRES   REMARKS
SPRINGFIELD    SUNNY     79  56  45 NW8       30.28F
6HR MIN TEMP:  63; 6HR MAX TEMP:  79;

JOPLIN         SUNNY     83  57  41 N8        30.29S
6HR MIN TEMP:  64; 6HR MAX TEMP:  83;

BRANSON        SUNNY     81  48  32 SW5       30.30F

$$
MOZ032>034-039>042-045>050-055>058-069>072-251900-
...CENTRAL MISSOURI...

CITY           SKY/WX    TMP DP  RH WIND       PRES   REMARKS
COLUMBIA       SUNNY     78  50  37 NW13G18   30.25F
6HR MIN TEMP:  62; 6HR MAX TEMP:  78;

JEFFERSON CITY SUNNY     79  47  32 N8G17     30.24S
6HR MIN TEMP:  62; 6HR MAX TEMP:  79;

ROLLA          SUNNY     78  52  40 NW10      30.25F
6HR MIN TEMP:  55; 6HR MAX TEMP:  79;

SEDALIA        SUNNY     78  51  38 VRB6      30.28F
6HR MIN TEMP:  63; 6HR MAX TEMP:  79;

WARRENSBURG    SUNNY     77  46  33 NW6       30.28F
OSAGE BEACH    SUNNY     79  51  37 W10       30.27S

$$
MOZ051-052-059>065-251900-
...EAST CENTRAL MISSOURI...

CITY           SKY/WX    TMP DP  RH WIND       PRES   REMARKS
ST LOUIS INTL  SUNNY     82  47  29 NW15G24   30.21F
6HR MIN TEMP:  67; 6HR MAX TEMP:  82;

SPIRIT OF STL  SUNNY     80  50  34 NW13      30.20F
6HR MIN TEMP:  63; 6HR MAX TEMP:  81;

ST CHARLES     SUNNY     80  44  27 NW14      30.20F
6HR MIN TEMP:  63; 6HR MAX TEMP:  80;


$$
MOZ072>076-082>087-097>100-106>115-251900-
...SOUTH CENTRAL AND SOUTHEAST MISSOURI...

CITY           SKY/WX    TMP DP  RH WIND       PRES   REMARKS
CAPE GIRARDEAU SUNNY     82  52  35 W8        30.21F
6HR MIN TEMP:  59; 6HR MAX TEMP:  82;

FARMINGTON     SUNNY     81  50  33 W8        30.24S
6HR MIN TEMP:  56; 6HR MAX TEMP:  81;

POPLAR BLUFF   SUNNY     83  53  35 VRB5      30.23F
6HR MIN TEMP:  61; 6HR MAX TEMP:  84;

WEST PLAINS    SUNNY     83  48  29 VRB3      30.28S
6HR MIN TEMP:  61; 6HR MAX TEMP:  84;


$$




USA.gov is the U.S. government's official web portal to all federal, state and local government web resources and services.